Year,Month,Day,Hour,Minute,Value (Times are PST for windgust in km/hr)
2021,12,12,00,00,11.30
2021,12,12,00,01,9.60
2021,12,12,00,02,3.20
2021,12,12,00,03,6.40
2021,12,12,00,04,4.80
2021,12,12,00,05,11.30
2021,12,12,00,06,12.90
2021,12,12,00,07,12.90
2021,12,12,00,08,11.30
2021,12,12,00,09,11.30
2021,12,12,00,10,8.10
2021,12,12,00,11,9.60
2021,12,12,00,12,8.10
2021,12,12,00,13,6.40
2021,12,12,00,14,8.10
2021,12,12,00,15,9.60
2021,12,12,00,16,8.10
2021,12,12,00,17,6.40
2021,12,12,00,18,4.80
2021,12,12,00,19,3.20
2021,12,12,00,20,8.10
2021,12,12,00,21,8.10
2021,12,12,00,22,9.60
2021,12,12,00,23,4.80
2021,12,12,00,27,9.60
2021,12,12,00,28,11.30
2021,12,12,00,29,11.30
2021,12,12,00,30,11.30
2021,12,12,00,31,16.10
2021,12,12,00,32,12.90
2021,12,12,00,33,9.60
2021,12,12,00,34,14.50
2021,12,12,00,35,9.60
2021,12,12,00,36,6.40
2021,12,12,00,37,17.70
2021,12,12,00,38,14.50
2021,12,12,00,39,12.90
2021,12,12,00,40,16.10
2021,12,12,00,41,11.30
2021,12,12,00,42,16.10
2021,12,12,00,43,19.30
2021,12,12,00,44,19.30
2021,12,12,00,45,12.90
2021,12,12,00,46,17.70
2021,12,12,00,47,11.30
2021,12,12,00,48,12.90
2021,12,12,00,49,12.90
2021,12,12,00,50,9.60
2021,12,12,00,51,12.90
2021,12,12,00,52,12.90
2021,12,12,00,53,12.90
2021,12,12,00,54,14.50
2021,12,12,00,55,11.30
2021,12,12,00,56,11.30
2021,12,12,00,57,9.60
2021,12,12,00,58,9.60
2021,12,12,00,59,9.60
2021,12,12,01,00,8.10
2021,12,12,01,01,11.30
2021,12,12,01,02,12.90
2021,12,12,01,03,12.90
2021,12,12,01,04,16.10
2021,12,12,01,05,17.70
2021,12,12,01,06,12.90
2021,12,12,01,07,16.10
2021,12,12,01,08,8.10
2021,12,12,01,09,9.60
2021,12,12,01,10,8.10
2021,12,12,01,11,14.50
2021,12,12,01,12,8.10
2021,12,12,01,13,9.60
2021,12,12,01,14,16.10
2021,12,12,01,15,12.90
2021,12,12,01,16,11.30
2021,12,12,01,17,11.30
2021,12,12,01,18,17.70
2021,12,12,01,19,12.90
2021,12,12,01,20,11.30
2021,12,12,01,21,9.60
2021,12,12,01,22,8.10
2021,12,12,01,23,9.60
2021,12,12,01,24,11.30
2021,12,12,01,25,11.30
2021,12,12,01,26,12.90
2021,12,12,01,27,11.30
2021,12,12,01,28,9.60
2021,12,12,01,29,8.10
2021,12,12,01,30,8.10
2021,12,12,01,31,8.10
2021,12,12,01,32,8.10
2021,12,12,01,33,8.10
2021,12,12,01,34,9.60
2021,12,12,01,35,8.10
2021,12,12,01,36,1.60
2021,12,12,01,37,3.20
2021,12,12,01,38,4.80
2021,12,12,01,39,12.90
2021,12,12,01,40,12.90
2021,12,12,01,41,3.20
2021,12,12,01,42,3.20
2021,12,12,01,43,3.20
2021,12,12,01,44,3.20
2021,12,12,01,45,3.20
2021,12,12,01,46,8.10
2021,12,12,01,47,3.20
2021,12,12,01,48,3.20
2021,12,12,01,49,4.80
2021,12,12,01,52,1.60
2021,12,12,01,54,4.80
2021,12,12,01,55,8.10
2021,12,12,01,56,6.40
2021,12,12,01,57,9.60
2021,12,12,01,58,6.40
2021,12,12,01,59,12.90
2021,12,12,02,00,11.30
2021,12,12,02,01,9.60
2021,12,12,02,02,8.10
2021,12,12,02,03,6.40
2021,12,12,02,04,8.10
2021,12,12,02,05,4.80
2021,12,12,02,06,3.20
2021,12,12,02,07,3.20
2021,12,12,02,08,3.20
2021,12,12,02,09,4.80
2021,12,12,02,10,4.80
2021,12,12,02,11,4.80
2021,12,12,02,12,4.80
2021,12,12,02,13,3.20
2021,12,12,02,14,4.80
2021,12,12,02,15,1.60
2021,12,12,02,16,3.20
2021,12,12,02,17,3.20
2021,12,12,02,18,1.60
2021,12,12,02,19,3.20
2021,12,12,02,20,8.10
2021,12,12,02,21,9.60
2021,12,12,02,22,8.10
2021,12,12,02,23,16.10
2021,12,12,02,24,16.10
2021,12,12,02,25,11.30
2021,12,12,02,26,9.60
2021,12,12,02,27,3.20
2021,12,12,02,28,6.40
2021,12,12,02,29,6.40
2021,12,12,02,30,8.10
2021,12,12,02,31,6.40
2021,12,12,02,32,4.80
2021,12,12,02,33,3.20
2021,12,12,02,34,3.20
2021,12,12,02,36,1.60
2021,12,12,02,37,3.20
2021,12,12,02,38,4.80
2021,12,12,02,39,4.80
2021,12,12,02,40,11.30
2021,12,12,02,41,11.30
2021,12,12,02,42,8.10
2021,12,12,02,43,8.10
2021,12,12,02,44,6.40
2021,12,12,02,45,19.30
2021,12,12,02,46,20.90
2021,12,12,02,47,17.70
2021,12,12,02,48,8.10
2021,12,12,02,49,9.60
2021,12,12,02,50,9.60
2021,12,12,02,51,9.60
2021,12,12,02,52,6.40
2021,12,12,02,53,14.50
2021,12,12,02,54,16.10
2021,12,12,02,55,11.30
2021,12,12,02,56,8.10
2021,12,12,02,57,9.60
2021,12,12,02,58,14.50
2021,12,12,02,59,16.10
2021,12,12,03,00,11.30
2021,12,12,03,01,8.10
2021,12,12,03,02,16.10
2021,12,12,03,03,6.40
2021,12,12,03,04,9.60
2021,12,12,03,05,11.30
2021,12,12,03,06,11.30
2021,12,12,03,07,16.10
2021,12,12,03,08,22.50
2021,12,12,03,09,32.20
2021,12,12,03,10,30.60
2021,12,12,03,11,27.40
2021,12,12,03,12,27.40
2021,12,12,03,13,30.60
2021,12,12,03,14,19.30
2021,12,12,03,15,14.50
2021,12,12,03,16,17.70
2021,12,12,03,17,24.20
2021,12,12,03,18,20.90
2021,12,12,03,19,30.60
2021,12,12,03,20,24.20
2021,12,12,03,21,24.20
2021,12,12,03,22,27.40
2021,12,12,03,23,25.70
2021,12,12,03,24,25.70
2021,12,12,03,25,17.70
2021,12,12,03,26,24.20
2021,12,12,03,27,20.90
2021,12,12,03,28,14.50
2021,12,12,03,29,20.90
2021,12,12,03,30,16.10
2021,12,12,03,31,17.70
2021,12,12,03,32,17.70
2021,12,12,03,33,14.50
2021,12,12,03,34,11.30
2021,12,12,03,35,17.70
2021,12,12,03,36,16.10
2021,12,12,03,37,12.90
2021,12,12,03,38,16.10
2021,12,12,03,39,17.70
2021,12,12,03,40,17.70
2021,12,12,03,41,17.70
2021,12,12,03,42,24.20
2021,12,12,03,43,19.30
2021,12,12,03,44,27.40
2021,12,12,03,45,25.70
2021,12,12,03,46,19.30
2021,12,12,03,47,22.50
2021,12,12,03,48,16.10
2021,12,12,03,49,11.30
2021,12,12,03,50,12.90
2021,12,12,03,51,20.90
2021,12,12,03,52,17.70
2021,12,12,03,53,19.30
2021,12,12,03,54,19.30
2021,12,12,03,55,17.70
2021,12,12,03,56,20.90
2021,12,12,03,57,16.10
2021,12,12,03,58,20.90
2021,12,12,03,59,16.10
2021,12,12,04,00,16.10
2021,12,12,04,01,16.10
2021,12,12,04,02,22.50
2021,12,12,04,03,17.70
2021,12,12,04,04,14.50
2021,12,12,04,05,11.30
2021,12,12,04,06,16.10
2021,12,12,04,07,20.90
2021,12,12,04,08,20.90
2021,12,12,04,09,17.70
2021,12,12,04,10,19.30
2021,12,12,04,11,17.70
2021,12,12,04,12,16.10
2021,12,12,04,13,20.90
2021,12,12,04,14,19.30
2021,12,12,04,15,24.20
2021,12,12,04,16,24.20
2021,12,12,04,17,16.10
2021,12,12,04,18,16.10
2021,12,12,04,19,17.70
2021,12,12,04,20,16.10
2021,12,12,04,21,17.70
2021,12,12,04,22,12.90
2021,12,12,04,23,22.50
2021,12,12,04,24,12.90
2021,12,12,04,25,19.30
2021,12,12,04,26,12.90
2021,12,12,04,27,19.30
2021,12,12,04,28,19.30
2021,12,12,04,29,14.50
2021,12,12,04,30,17.70
2021,12,12,04,31,16.10
2021,12,12,04,32,17.70
2021,12,12,04,33,16.10
2021,12,12,04,34,16.10
2021,12,12,04,35,16.10
2021,12,12,04,36,16.10
2021,12,12,04,37,22.50
2021,12,12,04,38,17.70
2021,12,12,04,39,16.10
2021,12,12,04,40,14.50
2021,12,12,04,41,16.10
2021,12,12,04,42,16.10
2021,12,12,04,43,16.10
2021,12,12,04,44,14.50
2021,12,12,04,45,11.30
2021,12,12,04,46,14.50
2021,12,12,04,47,17.70
2021,12,12,04,48,17.70
2021,12,12,04,49,14.50
2021,12,12,04,50,14.50
2021,12,12,04,51,12.90
2021,12,12,04,52,16.10
2021,12,12,04,53,14.50
2021,12,12,04,54,16.10
2021,12,12,04,55,17.70
2021,12,12,04,56,19.30
2021,12,12,04,57,9.60
2021,12,12,04,58,12.90
2021,12,12,04,59,12.90
2021,12,12,05,00,11.30
2021,12,12,05,01,11.30
2021,12,12,05,02,14.50
2021,12,12,05,03,14.50
2021,12,12,05,04,11.30
2021,12,12,05,05,12.90
2021,12,12,05,06,16.10
2021,12,12,05,07,16.10
2021,12,12,05,08,16.10
2021,12,12,05,09,14.50
2021,12,12,05,10,19.30
2021,12,12,05,11,8.10
2021,12,12,05,12,9.60
2021,12,12,05,13,8.10
2021,12,12,05,14,6.40
2021,12,12,05,15,16.10
2021,12,12,05,16,12.90
2021,12,12,05,17,11.30
2021,12,12,05,18,9.60
2021,12,12,05,19,12.90
2021,12,12,05,20,12.90
2021,12,12,05,21,12.90
2021,12,12,05,22,12.90
2021,12,12,05,23,14.50
2021,12,12,05,24,17.70
2021,12,12,05,25,14.50
2021,12,12,05,26,11.30
2021,12,12,05,27,12.90
2021,12,12,05,28,11.30
2021,12,12,05,29,11.30
2021,12,12,05,30,9.60
2021,12,12,05,31,17.70
2021,12,12,05,32,14.50
2021,12,12,05,33,14.50
2021,12,12,05,34,8.10
2021,12,12,05,35,6.40
2021,12,12,05,36,4.80
2021,12,12,05,37,3.20
2021,12,12,05,38,4.80
2021,12,12,05,39,4.80
2021,12,12,05,40,6.40
2021,12,12,05,41,1.60
2021,12,12,05,42,6.40
2021,12,12,05,43,9.60
2021,12,12,05,44,9.60
2021,12,12,05,45,11.30
2021,12,12,05,46,12.90
2021,12,12,05,47,14.50
2021,12,12,05,48,16.10
2021,12,12,05,49,16.10
2021,12,12,05,50,6.40
2021,12,12,05,51,8.10
2021,12,12,05,52,14.50
2021,12,12,05,53,14.50
2021,12,12,05,54,14.50
2021,12,12,05,55,12.90
2021,12,12,05,56,11.30
2021,12,12,05,57,9.60
2021,12,12,05,58,9.60
2021,12,12,05,59,9.60
2021,12,12,06,00,11.30
2021,12,12,06,01,11.30
2021,12,12,06,02,11.30
2021,12,12,06,03,16.10
2021,12,12,06,04,11.30
2021,12,12,06,05,16.10
2021,12,12,06,06,16.10
2021,12,12,06,07,22.50
2021,12,12,06,08,16.10
2021,12,12,06,09,12.90
2021,12,12,06,10,17.70
2021,12,12,06,11,19.30
2021,12,12,06,12,12.90
2021,12,12,06,13,19.30
2021,12,12,06,14,17.70
2021,12,12,06,15,20.90
2021,12,12,06,16,24.20
2021,12,12,06,17,20.90
2021,12,12,06,18,24.20
2021,12,12,06,19,19.30
2021,12,12,06,20,17.70
2021,12,12,06,21,24.20
2021,12,12,06,22,19.30
2021,12,12,06,23,17.70
2021,12,12,06,24,20.90
2021,12,12,06,25,14.50
2021,12,12,06,26,11.30
2021,12,12,06,27,17.70
2021,12,12,06,28,17.70
2021,12,12,06,29,16.10
2021,12,12,06,30,19.30
2021,12,12,06,31,16.10
2021,12,12,06,32,12.90
2021,12,12,06,33,17.70
2021,12,12,06,34,16.10
2021,12,12,06,35,11.30
2021,12,12,06,36,17.70
2021,12,12,06,37,12.90
2021,12,12,06,38,14.50
2021,12,12,06,39,24.20
2021,12,12,06,40,17.70
2021,12,12,06,41,16.10
2021,12,12,06,42,11.30
2021,12,12,06,43,14.50
2021,12,12,06,44,17.70
2021,12,12,06,45,16.10
2021,12,12,06,46,17.70
2021,12,12,06,47,19.30
2021,12,12,06,48,20.90
2021,12,12,06,49,20.90
2021,12,12,06,50,12.90
2021,12,12,06,51,11.30
2021,12,12,06,52,30.60
2021,12,12,06,53,27.40
2021,12,12,06,54,19.30
2021,12,12,06,55,20.90
2021,12,12,06,56,19.30
2021,12,12,06,57,14.50
2021,12,12,06,58,24.20
2021,12,12,06,59,14.50
2021,12,12,07,00,8.10
2021,12,12,07,01,16.10
2021,12,12,07,02,14.50
2021,12,12,07,03,14.50
2021,12,12,07,04,14.50
2021,12,12,07,05,11.30
2021,12,12,07,06,8.10
2021,12,12,07,07,9.60
2021,12,12,07,08,20.90
2021,12,12,07,09,17.70
2021,12,12,07,10,12.90
2021,12,12,07,11,9.60
2021,12,12,07,12,12.90
2021,12,12,07,13,9.60
2021,12,12,07,14,14.50
2021,12,12,07,15,11.30
2021,12,12,07,16,8.10
2021,12,12,07,17,8.10
2021,12,12,07,18,9.60
2021,12,12,07,19,9.60
2021,12,12,07,20,8.10
2021,12,12,07,21,8.10
2021,12,12,07,22,12.90
2021,12,12,07,23,12.90
2021,12,12,07,24,11.30
2021,12,12,07,25,12.90
2021,12,12,07,26,14.50
2021,12,12,07,27,11.30
2021,12,12,07,28,9.60
2021,12,12,07,29,11.30
2021,12,12,07,30,9.60
2021,12,12,07,31,9.60
2021,12,12,07,32,8.10
2021,12,12,07,33,6.40
2021,12,12,07,34,4.80
2021,12,12,07,35,6.40
2021,12,12,07,36,4.80
2021,12,12,07,37,6.40
2021,12,12,07,38,6.40
2021,12,12,07,39,11.30
2021,12,12,07,40,11.30
2021,12,12,07,41,9.60
2021,12,12,07,42,12.90
2021,12,12,07,43,11.30
2021,12,12,07,44,9.60
2021,12,12,07,45,11.30
2021,12,12,07,46,12.90
2021,12,12,07,47,11.30
2021,12,12,07,48,11.30
2021,12,12,07,49,6.40
2021,12,12,07,50,6.40
2021,12,12,07,51,6.40
2021,12,12,07,52,8.10
2021,12,12,07,53,11.30
2021,12,12,07,54,9.60
2021,12,12,07,55,9.60
2021,12,12,07,56,8.10
2021,12,12,07,57,11.30
2021,12,12,07,58,9.60
2021,12,12,07,59,12.90
2021,12,12,08,00,12.90
2021,12,12,08,01,9.60
2021,12,12,08,02,6.40
2021,12,12,08,03,9.60
2021,12,12,08,04,14.50
2021,12,12,08,05,9.60
2021,12,12,08,06,11.30
2021,12,12,08,07,11.30
2021,12,12,08,08,8.10
2021,12,12,08,09,11.30
2021,12,12,08,10,12.90
2021,12,12,08,11,12.90
2021,12,12,08,12,16.10
2021,12,12,08,13,16.10
2021,12,12,08,14,16.10
2021,12,12,08,15,9.60
2021,12,12,08,16,8.10
2021,12,12,08,17,4.80
2021,12,12,08,18,6.40
2021,12,12,08,19,9.60
2021,12,12,08,20,8.10
2021,12,12,08,21,9.60
2021,12,12,08,22,8.10
2021,12,12,08,23,6.40
2021,12,12,08,24,8.10
2021,12,12,08,25,8.10
2021,12,12,08,26,4.80
2021,12,12,08,27,8.10
2021,12,12,08,28,8.10
2021,12,12,08,29,6.40
2021,12,12,08,30,6.40
2021,12,12,08,31,9.60
2021,12,12,08,32,9.60
2021,12,12,08,33,11.30
2021,12,12,08,34,11.30
2021,12,12,08,35,6.40
2021,12,12,08,36,9.60
2021,12,12,08,37,8.10
2021,12,12,08,38,6.40
2021,12,12,08,39,6.40
2021,12,12,08,40,4.80
2021,12,12,08,41,4.80
2021,12,12,08,42,6.40
2021,12,12,08,43,6.40
2021,12,12,08,44,6.40
2021,12,12,08,45,4.80
2021,12,12,08,46,4.80
2021,12,12,08,47,6.40
2021,12,12,08,48,4.80
2021,12,12,08,49,4.80
2021,12,12,08,50,6.40
2021,12,12,08,51,4.80
2021,12,12,08,52,6.40
2021,12,12,08,53,6.40
2021,12,12,08,54,4.80
2021,12,12,08,55,6.40
2021,12,12,08,56,8.10
2021,12,12,08,57,9.60
2021,12,12,08,58,11.30
2021,12,12,08,59,9.60
2021,12,12,09,00,8.10
2021,12,12,09,01,12.90
2021,12,12,09,02,12.90
2021,12,12,09,03,11.30
2021,12,12,09,04,9.60
2021,12,12,09,05,11.30
2021,12,12,09,06,9.60
2021,12,12,09,07,9.60
2021,12,12,09,08,8.10
2021,12,12,09,09,8.10
2021,12,12,09,10,11.30
2021,12,12,09,11,8.10
2021,12,12,09,12,9.60
2021,12,12,09,13,8.10
2021,12,12,09,14,11.30
2021,12,12,09,15,8.10
2021,12,12,09,16,8.10
2021,12,12,09,17,6.40
2021,12,12,09,18,6.40
2021,12,12,09,19,4.80
2021,12,12,09,20,4.80
2021,12,12,09,21,4.80
2021,12,12,09,22,9.60
2021,12,12,09,23,11.30
2021,12,12,09,24,11.30
2021,12,12,09,25,11.30
2021,12,12,09,26,11.30
2021,12,12,09,27,9.60
2021,12,12,09,28,6.40
2021,12,12,09,29,9.60
2021,12,12,09,30,6.40
2021,12,12,09,31,8.10
2021,12,12,09,32,6.40
2021,12,12,09,33,6.40
2021,12,12,09,34,4.80
2021,12,12,09,35,4.80
2021,12,12,09,36,9.60
2021,12,12,09,37,8.10
2021,12,12,09,38,8.10
2021,12,12,09,39,8.10
2021,12,12,09,40,8.10
2021,12,12,09,41,8.10
2021,12,12,09,42,6.40
2021,12,12,09,43,6.40
2021,12,12,09,44,6.40
2021,12,12,09,45,9.60
2021,12,12,09,46,8.10
2021,12,12,09,47,9.60
2021,12,12,09,48,8.10
2021,12,12,09,49,8.10
2021,12,12,09,50,9.60
2021,12,12,09,51,8.10
2021,12,12,09,52,8.10
2021,12,12,09,53,6.40
2021,12,12,09,54,8.10
2021,12,12,09,55,6.40
2021,12,12,09,56,9.60
2021,12,12,09,57,8.10
2021,12,12,09,58,6.40
2021,12,12,09,59,9.60
2021,12,12,10,00,9.60
2021,12,12,10,01,12.90
2021,12,12,10,02,16.10
2021,12,12,10,03,17.70
2021,12,12,10,04,11.30
2021,12,12,10,05,8.10
2021,12,12,10,06,8.10
2021,12,12,10,07,11.30
2021,12,12,10,08,8.10
2021,12,12,10,09,8.10
2021,12,12,10,10,8.10
2021,12,12,10,11,11.30
2021,12,12,10,12,9.60
2021,12,12,10,13,8.10
2021,12,12,10,14,6.40
2021,12,12,10,15,9.60
2021,12,12,10,16,8.10
2021,12,12,10,17,9.60
2021,12,12,10,18,11.30
2021,12,12,10,19,9.60
2021,12,12,10,20,11.30
2021,12,12,10,21,16.10
2021,12,12,10,22,16.10
2021,12,12,10,23,16.10
2021,12,12,10,24,4.80
2021,12,12,10,25,4.80
2021,12,12,10,26,9.60
2021,12,12,10,27,8.10
2021,12,12,10,28,11.30
2021,12,12,10,29,9.60
2021,12,12,10,30,12.90
2021,12,12,10,31,14.50
2021,12,12,10,32,9.60
2021,12,12,10,33,9.60
2021,12,12,10,34,12.90
2021,12,12,10,35,11.30
2021,12,12,10,36,8.10
2021,12,12,10,37,8.10
2021,12,12,10,38,4.80
2021,12,12,10,39,14.50
2021,12,12,10,40,11.30
2021,12,12,10,41,4.80
2021,12,12,10,42,11.30
2021,12,12,10,43,4.80
2021,12,12,10,44,4.80
2021,12,12,10,45,6.40
2021,12,12,10,46,4.80
2021,12,12,10,47,4.80
2021,12,12,10,48,6.40
2021,12,12,10,49,3.20
2021,12,12,10,50,8.10
2021,12,12,10,51,6.40
2021,12,12,10,52,6.40
2021,12,12,10,53,3.20
2021,12,12,10,54,1.60
2021,12,12,10,55,1.60
2021,12,12,10,56,1.60
2021,12,12,10,59,6.40
2021,12,12,11,00,4.80
2021,12,12,11,01,8.10
2021,12,12,11,02,6.40
2021,12,12,11,03,6.40
2021,12,12,11,04,6.40
2021,12,12,11,05,4.80
2021,12,12,11,06,3.20
2021,12,12,11,07,6.40
2021,12,12,11,08,3.20
2021,12,12,11,09,3.20
2021,12,12,11,10,4.80
2021,12,12,11,11,4.80
2021,12,12,11,12,6.40
2021,12,12,11,13,11.30
2021,12,12,11,14,6.40
2021,12,12,11,15,14.50
2021,12,12,11,16,9.60
2021,12,12,11,17,6.40
2021,12,12,11,18,8.10
2021,12,12,11,19,8.10
2021,12,12,11,20,8.10
2021,12,12,11,21,6.40
2021,12,12,11,22,14.50
2021,12,12,11,23,12.90
2021,12,12,11,24,11.30
2021,12,12,11,25,8.10
2021,12,12,11,26,8.10
2021,12,12,11,27,11.30
2021,12,12,11,28,19.30
2021,12,12,11,29,16.10
2021,12,12,11,30,27.40
2021,12,12,11,31,25.70
2021,12,12,11,32,22.50
2021,12,12,11,33,19.30
2021,12,12,11,34,24.20
2021,12,12,11,35,22.50
2021,12,12,11,36,20.90
2021,12,12,11,37,17.70
2021,12,12,11,38,19.30
2021,12,12,11,39,20.90
2021,12,12,11,40,9.60
2021,12,12,11,41,14.50
2021,12,12,11,42,14.50
2021,12,12,11,43,6.40
2021,12,12,11,44,11.30
2021,12,12,11,45,11.30
2021,12,12,11,46,16.10
2021,12,12,11,47,14.50
2021,12,12,11,48,12.90
2021,12,12,11,49,12.90
2021,12,12,11,50,12.90
2021,12,12,11,51,16.10
2021,12,12,11,52,14.50
2021,12,12,11,53,14.50
2021,12,12,11,54,12.90
2021,12,12,11,55,14.50
2021,12,12,11,56,16.10
2021,12,12,11,57,8.10
2021,12,12,11,58,6.40
2021,12,12,11,59,6.40
2021,12,12,12,00,8.10
2021,12,12,12,01,6.40
2021,12,12,12,02,9.60
2021,12,12,12,03,8.10
2021,12,12,12,04,8.10
2021,12,12,12,05,4.80
2021,12,12,12,06,6.40
2021,12,12,12,07,4.80
2021,12,12,12,08,1.60
2021,12,12,12,09,3.20
2021,12,12,12,10,11.30
2021,12,12,12,11,6.40
2021,12,12,12,12,4.80
2021,12,12,12,13,6.40
2021,12,12,12,14,6.40
2021,12,12,12,15,4.80
2021,12,12,12,16,4.80
2021,12,12,12,17,4.80
2021,12,12,12,18,3.20
2021,12,12,12,19,3.20
2021,12,12,12,21,3.20
2021,12,12,12,22,4.80
2021,12,12,12,23,4.80
2021,12,12,12,24,6.40
2021,12,12,12,25,6.40
2021,12,12,12,26,4.80
2021,12,12,12,27,1.60
2021,12,12,12,28,1.60
2021,12,12,12,29,1.60
2021,12,12,12,30,1.60
2021,12,12,12,37,3.20
2021,12,12,12,41,1.60
2021,12,12,12,42,1.60
2021,12,12,12,48,4.80
2021,12,12,12,49,1.60
2021,12,12,12,50,3.20
2021,12,12,12,51,8.10
2021,12,12,12,52,8.10
2021,12,12,12,54,3.20
2021,12,12,12,55,6.40
2021,12,12,12,56,4.80
2021,12,12,12,57,6.40
2021,12,12,12,58,4.80
2021,12,12,12,59,3.20
2021,12,12,13,00,3.20
2021,12,12,13,01,1.60
2021,12,12,13,05,1.60
2021,12,12,13,06,3.20
2021,12,12,13,07,3.20
2021,12,12,13,08,4.80
2021,12,12,13,09,3.20
2021,12,12,13,10,3.20
2021,12,12,13,11,1.60
2021,12,12,13,15,3.20
2021,12,12,13,16,3.20
2021,12,12,13,17,8.10
2021,12,12,13,18,4.80
2021,12,12,13,19,6.40
2021,12,12,13,20,4.80
2021,12,12,13,21,4.80
2021,12,12,13,22,6.40
2021,12,12,13,23,1.60
2021,12,12,13,24,4.80
2021,12,12,13,25,8.10
2021,12,12,13,26,4.80
2021,12,12,13,27,4.80
2021,12,12,13,28,8.10
2021,12,12,13,29,8.10
2021,12,12,13,30,6.40
2021,12,12,13,31,3.20
2021,12,12,13,32,8.10
2021,12,12,13,33,6.40
2021,12,12,13,34,4.80
2021,12,12,13,36,4.80
2021,12,12,13,37,9.60
2021,12,12,13,38,14.50
2021,12,12,13,39,14.50
2021,12,12,13,40,14.50
2021,12,12,13,41,22.50
2021,12,12,13,42,19.30
2021,12,12,13,43,27.40
2021,12,12,13,44,24.20
2021,12,12,13,45,19.30
2021,12,12,13,46,20.90
2021,12,12,13,47,20.90
2021,12,12,13,48,29.00
2021,12,12,13,49,30.60
2021,12,12,13,50,29.00
2021,12,12,13,51,24.20
2021,12,12,13,52,29.00
2021,12,12,13,53,25.70
2021,12,12,13,54,32.20
2021,12,12,13,55,32.20
2021,12,12,13,56,27.40
2021,12,12,13,57,27.40
2021,12,12,13,58,29.00
2021,12,12,13,59,25.70
2021,12,12,14,00,27.40
2021,12,12,14,01,19.30
2021,12,12,14,02,17.70
2021,12,12,14,03,27.40
2021,12,12,14,04,20.90
2021,12,12,14,05,30.60
2021,12,12,14,06,17.70
2021,12,12,14,07,22.50
2021,12,12,14,08,19.30
2021,12,12,14,09,22.50
2021,12,12,14,10,19.30
2021,12,12,14,11,12.90
2021,12,12,14,12,17.70
2021,12,12,14,13,14.50
2021,12,12,14,14,17.70
2021,12,12,14,15,14.50
2021,12,12,14,16,11.30
2021,12,12,14,17,14.50
2021,12,12,14,18,9.60
2021,12,12,14,19,19.30
2021,12,12,14,20,12.90
2021,12,12,14,21,14.50
2021,12,12,14,22,11.30
2021,12,12,14,23,16.10
2021,12,12,14,24,17.70
2021,12,12,14,25,22.50
2021,12,12,14,26,19.30
2021,12,12,14,27,14.50
2021,12,12,14,28,12.90
2021,12,12,14,29,20.90
2021,12,12,14,30,19.30
2021,12,12,14,31,17.70
2021,12,12,14,32,19.30
2021,12,12,14,33,20.90
2021,12,12,14,34,17.70
2021,12,12,14,35,19.30
2021,12,12,14,36,20.90
2021,12,12,14,37,20.90
2021,12,12,14,38,17.70
2021,12,12,14,39,20.90
2021,12,12,14,40,20.90
2021,12,12,14,41,16.10
2021,12,12,14,42,20.90
2021,12,12,14,43,20.90
2021,12,12,14,44,19.30
2021,12,12,14,45,20.90
2021,12,12,14,46,17.70
2021,12,12,14,47,19.30
2021,12,12,14,48,14.50
2021,12,12,14,49,14.50
2021,12,12,14,50,14.50
2021,12,12,14,51,19.30
2021,12,12,14,52,16.10
2021,12,12,14,53,19.30
2021,12,12,14,54,16.10
2021,12,12,14,55,22.50
2021,12,12,14,56,19.30
2021,12,12,14,57,14.50
2021,12,12,14,58,12.90
2021,12,12,14,59,14.50
2021,12,12,15,00,14.50
2021,12,12,15,01,11.30
2021,12,12,15,02,9.60
2021,12,12,15,03,12.90
2021,12,12,15,04,11.30
2021,12,12,15,05,6.40
2021,12,12,15,06,6.40
2021,12,12,15,07,8.10
2021,12,12,15,08,8.10
2021,12,12,15,09,8.10
2021,12,12,15,10,4.80
2021,12,12,15,11,6.40
2021,12,12,15,12,4.80
2021,12,12,15,13,8.10
2021,12,12,15,14,4.80
2021,12,12,15,15,3.20
2021,12,12,15,16,3.20
2021,12,12,15,17,1.60
2021,12,12,15,18,1.60
2021,12,12,15,19,3.20
2021,12,12,15,20,4.80
2021,12,12,15,22,1.60
2021,12,12,15,24,1.60
2021,12,12,15,25,1.60
2021,12,12,15,28,4.80
2021,12,12,15,29,4.80
2021,12,12,15,30,4.80
2021,12,12,15,31,6.40
2021,12,12,15,32,4.80
2021,12,12,15,33,3.20
2021,12,12,15,34,4.80
2021,12,12,15,35,3.20
2021,12,12,15,36,4.80
2021,12,12,15,37,1.60
2021,12,12,15,39,3.20
2021,12,12,15,40,3.20
2021,12,12,15,41,1.60
2021,12,12,15,42,3.20
2021,12,12,15,43,3.20
2021,12,12,15,44,6.40
2021,12,12,15,45,3.20
2021,12,12,15,46,3.20
2021,12,12,15,47,1.60
2021,12,12,15,49,8.10
2021,12,12,15,50,6.40
2021,12,12,15,51,3.20
2021,12,12,15,52,1.60
2021,12,12,15,57,3.20
2021,12,12,15,58,3.20
2021,12,12,15,59,3.20
2021,12,12,16,00,1.60
2021,12,12,16,05,1.60
2021,12,12,16,06,3.20
2021,12,12,16,07,3.20
2021,12,12,16,08,1.60
2021,12,12,16,09,3.20
2021,12,12,16,10,1.60
2021,12,12,16,11,1.60
2021,12,12,16,12,1.60
2021,12,12,16,13,3.20
2021,12,12,16,14,3.20
2021,12,12,16,15,3.20
2021,12,12,16,16,1.60
2021,12,12,16,17,1.60
2021,12,12,16,18,1.60
2021,12,12,16,31,3.20
2021,12,12,16,32,3.20
2021,12,12,16,33,3.20
2021,12,12,16,34,3.20
2021,12,12,16,35,3.20
2021,12,12,16,36,4.80
2021,12,12,16,37,4.80
2021,12,12,16,38,4.80
2021,12,12,16,39,4.80
2021,12,12,16,40,1.60
2021,12,12,16,42,1.60
2021,12,12,16,46,3.20
2021,12,12,16,47,1.60
2021,12,12,16,51,1.60
2021,12,12,16,52,1.60
2021,12,12,16,53,1.60
2021,12,12,17,03,1.60
2021,12,12,17,04,3.20
2021,12,12,17,05,1.60
2021,12,12,17,14,1.60
2021,12,12,17,15,1.60
2021,12,12,17,19,1.60
2021,12,12,17,22,1.60
2021,12,12,17,23,3.20
2021,12,12,17,24,1.60
2021,12,12,17,25,1.60
2021,12,12,17,32,1.60
2021,12,12,17,33,3.20
2021,12,12,17,34,3.20
2021,12,12,17,35,1.60
2021,12,12,17,36,1.60
2021,12,12,17,37,1.60
2021,12,12,17,38,1.60
2021,12,12,17,39,3.20
2021,12,12,17,40,3.20
2021,12,12,17,41,1.60
2021,12,12,17,42,1.60
2021,12,12,17,43,8.10
2021,12,12,17,44,4.80
2021,12,12,17,45,3.20
2021,12,12,17,46,8.10
2021,12,12,17,47,3.20
2021,12,12,17,48,1.60
2021,12,12,17,49,3.20
2021,12,12,17,50,4.80
2021,12,12,17,51,4.80
2021,12,12,17,52,6.40
2021,12,12,17,53,1.60
2021,12,12,17,54,6.40
2021,12,12,17,55,6.40
2021,12,12,17,56,8.10
2021,12,12,17,58,6.40
2021,12,12,17,59,4.80
2021,12,12,18,00,1.60
2021,12,12,18,01,6.40
2021,12,12,18,02,8.10
2021,12,12,18,03,6.40
2021,12,12,18,04,4.80
2021,12,12,18,05,3.20
2021,12,12,18,06,3.20
2021,12,12,18,07,4.80
2021,12,12,18,08,4.80
2021,12,12,18,09,6.40
2021,12,12,18,10,4.80
2021,12,12,18,11,6.40
2021,12,12,18,12,3.20
2021,12,12,18,13,3.20
2021,12,12,18,14,4.80
2021,12,12,18,15,3.20
2021,12,12,18,16,1.60
2021,12,12,18,17,3.20
2021,12,12,18,19,4.80
2021,12,12,18,20,4.80
2021,12,12,18,21,1.60
2021,12,12,18,22,1.60
2021,12,12,18,23,3.20
2021,12,12,18,24,3.20
2021,12,12,18,25,3.20
2021,12,12,18,26,6.40
2021,12,12,18,27,6.40
2021,12,12,18,28,3.20
2021,12,12,18,29,1.60
2021,12,12,18,30,4.80
2021,12,12,18,31,4.80
2021,12,12,18,32,4.80
2021,12,12,18,33,4.80
2021,12,12,18,34,4.80
2021,12,12,18,35,4.80
2021,12,12,18,36,9.60
2021,12,12,18,37,4.80
2021,12,12,18,38,9.60
2021,12,12,18,39,6.40
2021,12,12,18,40,4.80
2021,12,12,18,41,3.20
2021,12,12,18,42,4.80
2021,12,12,18,43,4.80
2021,12,12,18,44,4.80
2021,12,12,18,45,3.20
2021,12,12,18,46,4.80
2021,12,12,18,47,4.80
2021,12,12,18,48,4.80
2021,12,12,18,49,4.80
2021,12,12,18,50,4.80
2021,12,12,18,51,3.20
2021,12,12,18,52,3.20
2021,12,12,18,53,4.80
2021,12,12,18,54,4.80
2021,12,12,18,55,6.40
2021,12,12,18,56,4.80
2021,12,12,18,57,4.80
2021,12,12,18,58,6.40
2021,12,12,18,59,4.80
2021,12,12,19,00,3.20
2021,12,12,19,01,3.20
2021,12,12,19,02,3.20
2021,12,12,19,03,6.40
2021,12,12,19,04,6.40
2021,12,12,19,05,4.80
2021,12,12,19,06,4.80
2021,12,12,19,07,3.20
2021,12,12,19,08,4.80
2021,12,12,19,09,4.80
2021,12,12,19,10,6.40
2021,12,12,19,11,4.80
2021,12,12,19,12,8.10
2021,12,12,19,13,6.40
2021,12,12,19,14,4.80
2021,12,12,19,15,4.80
2021,12,12,19,16,3.20
2021,12,12,19,17,3.20
2021,12,12,19,18,3.20
2021,12,12,19,19,1.60
2021,12,12,19,20,4.80